ONEWEB-0134 (47280 NORAD) Tracking and Keplerian Element Data
This shows tracking and keplerian element data for the satellite.
Feedback or suggestion? Click here.
Element | Value |
Catalog | 47280 |
Name | ONEWEB-0134 |
Epoch Orbit | 1701 |
Epoch Day | 105.91667824 |
Epoch Year | 2021 |
RAAN | 6.0902 |
Inclination | 87.9583 |
Eccentricity | 0.0002012 |
Argument of Perigee | 117.7855 |
Mean Anonmoly | 56.3539 |
Mean Motion | 13.28692414 |
Decay Rate | -0.00032937 |
L1 | 1 47280U 20100Y 21105.91667824 -.00032937 00000-0 -72264-1 0 9994 |
L2 | 2 47280 87.9583 6.0902 0002012 117.7855 56.3539 13.28692414 17019 |
Live tracking and technical data element details for ONEWEB-0134 (NORAD 47280). ONEWEB-0134 can be tracked NOW for your location showing map with azimuth and elevation plus other details from your city location.
Track the satellite on the map from your city or location and see movement details for azimuth, elevation, latitude, longitude, range, height, and movement on the map or in text.
IsCatalogInMostPopularTable: catalog: 47280, numindb: 34
Update: records affected: 1
GetName: 47280 ONEWEB-0134
Hit Count: updated at: Fri, 16 Apr 2021 11:21:45 GMT